Погода в Сосновке

Россия / Курская область     51°26′35″N   38°10′29″E
темп.,
°C
ветер,
м/с
пор.,
м/с
влажн.,
%
обл.,
%
осадки,
мм/ч
давл.,
гПа
погр.,
м
5 декабря, вс
вс500:00−3зюз018323 0.0 101645
03:00−3всв118186 0.0 101621
06:00−4в237979 0.0 101691
09:00−3в12795 0.0 101780
12:00−1вюв23590 0.0 1016342
15:000всв235820 0.0 1016170
18:00−3в2366100 0.0 101748
21:00−2вюв2464100 0.0 101892
6 декабря, пн
пн600:00−3вюв2365100 0.0 101984
03:00−3вюв2465100 0.0 102088
06:00−3вюв3564100 0.0 1020147
09:00−2вюв3863100 0.0 1021289
12:00−1юв4761100 0.0 1020356
15:000юв367282 0.0 1020356
18:00−1юв478779 0.0 1021200
21:00−2юв4993100 0.0 1020248
7 декабря, вт
вт700:00−1юв51094100 0.0 1020320
03:000юв61295100 1.1 1018373
06:00+1ююв71697100 0.5 1017435
09:00+2ююв61498100 4.1 1016428
12:00+4ю71696100 0.3 1015467
15:00+4ю61597100 3.1 1014411
18:00+4ююв51295100 1.4 1014231
21:00+3ююв51294100 1.4 1014266
8 декабря, ср
ср800:00+3ююв5149489 0.0 1013311
03:00+2ююв51395100 0.0 1013286
06:00+2ююв41194100 0.0 1012250
09:00+2юв4996100 0.0 1013228
12:00+4юв51090100 0.0 1012350
15:00+4вюв5990100 0.0 1011360
18:00+3вюв4994100 0.0 1011270
21:00+3вюв3893100 0.0 1012273
9 декабря, чт
чт900:00+2вюв4896100 0.0 1012209
03:00+3юв3996100 0.0 1012224
06:00+3вюв3595100 0.0 101193
09:00+3вюв4897100 1.0 1012204
12:00+4вюв3796100 1.3 1012195
15:00+4вюв3691100 1.3 1012217
18:00+4юв2496100 0.3 1013118
21:00+4юв2298100 0.8 101342